User: anonymous   Login
Location: ????????
(55.0808°N, 38.5463°E)
Time: 00:27:29
(UTC+00:00)
Language:

ATLAS 5 CENTAUR R/B - Orbit

View from above orbital plane
View from above orbital plane
View from above satellite
View from above satellite

Ground track
Ground track

The orbit data is extracted from the following two-line orbital elements,

1 31702U 07027B   24168.71655621  .00006867  00000-0  59094-3 0  9990
2 31702  63.3295 294.4602 0522245  32.6654 330.5601 14.29516203  5462
Epoch (UTC): 16 June 2024 17:11:50
Eccentricity: 0.0522245
inclination: 63.3295°
perigee height: 419 km
apogee height: 1168 km
right ascension of ascending node: 294.4602°
argument of perigee: 32.6654°
revolutions per day: 14.29516203
mean anomaly at epoch: 330.5601°
orbit number at epoch: 546

The dashed part of the orbit path shows where the satellite is in the earth's shadow,  

DLR